FW7746 Weather Reports


Display with metric or nautical units.
time (UTC)temp
F
wind
direction
speed
MPH
gust
MPH
rain 1hr
in
rain 24hr
in
rain mn
in
humidity
%
barometer
mb
20260509233104 82 335 1.0 3.0 0.00 0.00 0.00 15 1014.0
20260509232604 82 323 0.0 2.0 0.00 0.00 0.00 16 1014.0
20260509232104 82 324 1.0 6.0 0.00 0.00 0.00 15 1014.1
20260509231604 82 330 0.0 1.0 0.00 0.00 0.00 16 1014.3
20260509231103 82 313 0.0 2.0 0.00 0.00 0.00 16 1014.6
20260509230604 82 197 1.0 3.0 0.00 0.00 0.00 16 1014.5
20260509230104 82 132 0.0 3.0 0.00 0.00 0.00 15 1014.7
20260509225604 83 180 0.0 2.0 0.00 0.00 0.00 15 1014.7
20260509225104 83 85 1.0 3.0 0.00 0.00 0.00 15 1014.7
20260509224604 82 91 0.0 1.0 0.00 0.00 0.00 16 1014.9
20260509223604 82 108 0.0 3.0 0.00 0.00 0.00 15 1015.1
20260509223103 82 71 0.0 3.0 0.00 0.00 0.00 16 1015.2
20260509222604 82 152 0.0 0.0 0.00 0.00 0.00 15 1015.3
20260509221604 82 149 0.0 2.0 0.00 0.00 0.00 15 1015.4
20260509221103 83 25 0.0 2.0 0.00 0.00 0.00 16 1015.3
20260509220604 83 162 0.0 1.0 0.00 0.00 0.00 16 1015.5
20260509215603 83 213 0.0 2.0 0.00 0.00 0.00 16 1015.7
20260509214604 82 213 0.0 0.0 0.00 0.00 0.00 15 1015.8
20260509214104 82 206 0.0 2.0 0.00 0.00 0.00 16 1016.0
20260509213603 81 324 0.0 0.0 0.00 0.00 0.00 17 1015.9
20260509213104 80 325 0.0 0.0 0.00 0.00 0.00 17 1016.0
20260509212604 80 325 0.0 3.0 0.00 0.00 0.00 18 1015.9
20260509212104 79 77 1.0 3.0 0.00 0.00 0.00 18 1016.0
20260509211604 79 328 1.0 5.0 0.00 0.00 0.00 17 1016.1
20260509211103 79 348 0.0 2.0 0.00 0.00 0.00 19 1016.1
20260509210104 78 332 0.0 3.0 0.00 0.00 0.00 18 1016.3
20260509205604 78 314 1.0 8.0 0.00 0.00 0.00 18 1016.3
20260509205104 78 1 0.0 3.0 0.00 0.00 0.00 19 1016.4
20260509204604 77 93 0.0 1.0 0.00 0.00 0.00 19 1016.4
20260509204103 77 346 0.0 3.0 0.00 0.00 0.00 19 1016.6
20260509203604 78 323 1.0 3.0 0.00 0.00 0.00 19 1016.6
20260509203104 78 313 1.0 3.0 0.00 0.00 0.00 18 1016.6
20260509202603 79 316 1.0 3.0 0.00 0.00 0.00 19 1016.7
20260509202104 79 198 0.0 2.0 0.00 0.00 0.00 19 1016.8
20260509201104 78 1 0.0 1.0 0.00 0.00 0.00 20 1016.8
20260509200604 77 348 0.0 3.0 0.00 0.00 0.00 19 1016.9
20260509200104 77 18 0.0 2.0 0.00 0.00 0.00 21 1017.0
20260509195104 76 63 1.0 3.0 0.00 0.00 0.00 20 1017.1
20260509194603 76 338 1.0 3.0 0.00 0.00 0.00 21 1017.2
20260509194103 76 68 0.0 3.0 0.00 0.00 0.00 19 1017.3
20260509193604 76 77 1.0 3.0 0.00 0.00 0.00 20 1017.4
20260509193104 76 72 1.0 3.0 0.00 0.00 0.00 20 1017.4
20260509192104 75 3 0.0 3.0 0.00 0.00 0.00 22 1017.6
20260509191103 74 233 0.0 3.0 0.00 0.00 0.00 22 1017.6
20260509190104 74 43 0.0 2.0 0.00 0.00 0.00 23 1017.9
20260509185104 73 98 0.0 2.0 0.00 0.00 0.00 24 1018.0
20260509184604 73 98 0.0 0.0 0.00 0.00 0.00 23 1018.1
20260509184104 72 105 1.0 6.0 0.00 0.00 0.00 24 1018.2
20260509183604 72 168 0.0 0.0 0.00 0.00 0.00 26 1018.1
20260509183104 72 163 0.0 0.0 0.00 0.00 0.00 25 1018.2
20260509182604 71 161 1.0 5.0 0.00 0.00 0.00 26 1018.2
20260509182103 71 141 0.0 2.0 0.00 0.00 0.00 27 1018.2
20260509180604 70 82 0.0 2.0 0.00 0.00 0.00 29 1018.3
20260509180104 69 67 0.0 2.0 0.00 0.00 0.00 30 1018.4
20260509175603 69 310 1.0 3.0 0.00 0.00 0.00 31 1018.5
20260509175104 69 105 0.0 1.0 0.00 0.00 0.00 32 1018.6
20260509174603 69 106 0.0 2.0 0.00 0.00 0.00 31 1018.5
20260509174104 68 121 0.0 2.0 0.00 0.00 0.00 33 1018.5
20260509173604 68 121 1.0 3.0 0.00 0.00 0.00 33 1018.4
20260509173103 67 130 0.0 2.0 0.00 0.00 0.00 34 1018.6
20260509172604 67 110 1.0 2.0 0.00 0.00 0.00 34 1018.7
20260509172104 66 113 0.0 3.0 0.00 0.00 0.00 35 1018.7
20260509171604 66 165 0.0 0.0 0.00 0.00 0.00 37 1018.8
20260509171104 65 173 0.0 0.0 0.00 0.00 0.00 38 1018.7
20260509170603 65 183 0.0 0.0 0.00 0.00 0.00 37 1018.8
20260509170104 64 183 0.0 0.0 0.00 0.00 0.00 38 1018.9
20260509165604 64 182 0.0 0.0 0.00 0.00 0.00 38 1018.9
20260509165104 64 182 0.0 0.0 0.00 0.00 0.00 38 1018.9
20260509164604 63 182 0.0 0.0 0.00 0.00 0.00 40 1018.8
20260509164105 62 170 0.0 1.0 0.00 0.00 0.00 39 1019.0
20260509163603 62 169 0.0 0.0 0.00 0.00 0.00 41 1019.0
20260509163104 61 169 0.0 0.0 0.00 0.00 0.00 42 1019.0
20260509162604 61 216 0.0 0.0 0.00 0.00 0.00 44 1019.0
20260509162104 60 216 0.0 2.0 0.00 0.00 0.00 45 1019.0
20260509161604 60 221 0.0 3.0 0.00 0.00 0.00 46 1019.1
20260509161104 59 157 0.0 0.0 0.00 0.00 0.00 49 1019.1
20260509160604 59 156 0.0 0.0 0.00 0.00 0.00 50 1019.1
20260509160104 58 157 0.0 0.0 0.00 0.00 0.00 52 1019.0
20260509155604 58 157 0.0 1.0 0.00 0.00 0.00 53 1019.0
20260509155104 57 200 0.0 0.0 0.00 0.00 0.00 55 1019.1
20260509154603 56 200 0.0 2.0 0.00 0.00 0.00 56 1019.1
20260509154104 56 136 0.0 0.0 0.00 0.00 0.00 57 1019.2
20260509153603 55 135 0.0 1.0 0.00 0.00 0.00 59 1019.1
20260509153104 54 134 0.0 0.0 0.00 0.00 0.00 60 1019.2
20260509152604 54 123 0.0 0.0 0.00 0.00 0.00 61 1019.3
20260509152104 53 121 0.0 0.0 0.00 0.00 0.00 62 1019.5
20260509151604 53 116 0.0 1.0 0.00 0.00 0.00 62 1019.6
20260509150604 52 221 0.0 0.0 0.00 0.00 0.00 65 1019.6
20260509145604 51 238 1.0 3.0 0.00 0.00 0.00 67 1019.4
20260509145104 50 172 0.0 0.0 0.00 0.00 0.00 68 1019.4
20260509144604 50 172 0.0 0.0 0.00 0.00 0.00 68 1019.5
20260509144104 50 171 0.0 1.0 0.00 0.00 0.00 69 1019.5
20260509143604 49 178 0.0 0.0 0.00 0.00 0.00 70 1019.5
20260509142604 48 204 0.0 3.0 0.00 0.00 0.00 71 1019.3
20260509142104 47 181 0.0 2.0 0.00 0.00 0.00 72 1019.3
20260509141604 47 140 0.0 3.0 0.00 0.00 0.00 73 1019.4
20260509141104 46 185 0.0 2.0 0.00 0.00 0.00 73 1019.2
20260509140604 46 230 1.0 5.0 0.00 0.00 0.00 73 1019.2
20260509140105 45 197 0.0 2.0 0.00 0.00 0.00 74 1019.2
20260509134604 44 177 0.0 0.0 0.00 0.00 0.00 76 1019.2
20260509134103 44 177 0.0 0.0 0.00 0.00 0.00 77 1019.3
20260509133104 43 177 0.0 0.0 0.00 0.00 0.00 77 1019.1
20260509132603 43 177 0.0 0.0 0.00 0.00 0.00 77 1019.1
20260509132104 42 177 0.0 0.0 0.00 0.00 0.00 77 1019.0
20260509131604 42 177 0.0 0.0 0.00 0.00 0.00 77 1019.0
20260509130604 42 177 0.0 0.0 0.00 0.00 0.00 76 1018.9
20260509130104 42 177 0.0 0.0 0.00 0.00 0.00 75 1018.9
20260509125104 43 177 0.0 0.0 0.00 0.00 0.00 74 1018.9
20260509124604 43 177 0.0 0.0 0.00 0.00 0.00 74 1019.0
20260509123604 43 190 0.0 2.0 0.00 0.00 0.00 76 1018.7
20260509123104 43 219 0.0 2.0 0.00 0.00 0.00 77 1018.7
20260509122604 43 216 0.0 1.0 0.00 0.00 0.00 76 1018.7
20260509122103 43 247 0.0 0.0 0.00 0.00 0.00 76 1018.7
20260509121604 43 252 0.0 0.0 0.00 0.00 0.00 76 1018.7
20260509121104 43 250 0.0 1.0 0.00 0.00 0.00 76 1018.8
20260509120104 43 254 0.0 0.0 0.00 0.00 0.00 75 1018.8
20260509115604 43 259 0.0 0.0 0.00 0.00 0.00 74 1018.9
20260509115103 43 268 0.0 0.0 0.00 0.00 0.00 73 1018.9
20260509114604 43 273 0.0 0.0 0.00 0.00 0.00 73 1019.0
20260509114104 43 273 0.0 0.0 0.00 0.00 0.00 73 1019.0
20260509113104 43 272 0.0 0.0 0.00 0.00 0.00 73 1019.1
20260509112604 43 272 0.0 0.0 0.00 0.00 0.00 73 1019.1
20260509112104 43 271 0.0 1.0 0.00 0.00 0.00 73 1019.1
20260509111104 43 273 0.0 0.0 0.00 0.00 0.00 73 1019.1
20260509110604 42 310 0.0 0.0 0.00 0.00 0.00 73 1019.1
20260509110104 42 310 0.0 0.0 0.00 0.00 0.00 72 1019.1
20260509105604 42 311 0.0 0.0 0.00 0.00 0.00 71 1019.2
20260509104603 42 316 0.0 0.0 0.00 0.00 0.00 71 1019.4
20260509104108 42 316 0.0 0.0 0.00 0.00 0.00 70 1019.3
20260509103604 43 316 0.0 0.0 0.00 0.00 0.00 70 1019.3
20260509102603 43 316 0.0 0.0 0.00 0.00 0.00 69 1019.2
20260509102104 43 316 0.0 0.0 0.00 0.00 0.00 67 1019.1
20260509101603 43 316 0.0 0.0 0.00 0.00 0.00 67 1019.1
20260509101104 43 316 0.0 0.0 0.00 0.00 0.00 67 1019.2
20260509100604 43 316 0.0 0.0 0.00 0.00 0.00 67 1019.2
20260509100104 43 316 0.0 0.0 0.00 0.00 0.00 67 1019.3
20260509095604 43 316 0.0 0.0 0.00 0.00 0.00 67 1019.3
20260509095104 43 316 0.0 0.0 0.00 0.00 0.00 66 1019.3
20260509094604 44 316 0.0 0.0 0.00 0.00 0.00 66 1019.4
20260509094104 44 316 0.0 0.0 0.00 0.00 0.00 66 1019.4
20260509093104 44 316 0.0 0.0 0.00 0.00 0.00 66 1019.3
20260509092604 44 316 0.0 0.0 0.00 0.00 0.00 66 1019.4
20260509092104 44 316 0.0 0.0 0.00 0.00 0.00 66 1019.2
20260509091603 44 316 0.0 0.0 0.00 0.00 0.00 66 1019.2
20260509091104 44 316 0.0 0.0 0.00 0.00 0.00 66 1019.3
20260509090604 44 316 0.0 0.0 0.00 0.00 0.00 65 1019.3
20260509090104 44 316 0.0 0.0 0.00 0.00 0.00 65 1019.4
20260509085104 45 316 0.0 0.0 0.00 0.00 0.00 65 1019.2
20260509084604 45 316 0.0 0.0 0.00 0.00 0.00 65 1019.3
20260509084104 45 316 0.0 0.0 0.00 0.00 0.00 65 1019.3
20260509083604 45 316 0.0 0.0 0.00 0.00 0.00 65 1019.4
20260509083103 45 316 0.0 0.0 0.00 0.00 0.00 64 1019.4
20260509082104 45 316 0.0 0.0 0.00 0.00 0.00 65 1019.4
20260509081104 46 316 0.0 0.0 0.00 0.00 0.00 64 1019.4
20260509080604 46 316 0.0 0.0 0.00 0.00 0.00 64 1019.4
20260509080105 46 317 0.0 0.0 0.00 0.00 0.00 64 1019.4
20260509075604 46 316 0.0 0.0 0.00 0.00 0.00 63 1019.4
20260509075103 46 316 0.0 0.0 0.00 0.00 0.00 63 1019.4
20260509074604 46 316 0.0 0.0 0.00 0.00 0.00 62 1019.4
20260509074104 46 316 0.0 0.0 0.00 0.00 0.00 62 1019.3
20260509073603 47 316 0.0 0.0 0.00 0.00 0.00 62 1019.3
20260509073104 47 316 0.0 0.0 0.00 0.00 0.00 61 1019.2
20260509072604 47 316 0.0 0.0 0.00 0.00 0.00 61 1019.2
20260509072104 47 316 0.0 0.0 0.00 0.00 0.00 60 1019.2
20260509071604 47 316 0.0 0.0 0.00 0.00 0.00 59 1019.2
20260509071104 48 316 0.0 0.0 0.00 0.00 0.00 60 1019.2
20260509070605 48 316 0.0 0.0 0.00 0.00 0.00 59 1019.0
20260509070104 48 316 0.0 0.0 0.00 0.00 0.00 59 1019.0
20260509065604 49 316 0.0 0.0 0.00 0.00 0.00 58 1018.8
20260509065104 49 316 0.0 0.0 0.00 0.00 0.00 58 1018.8
20260509064604 49 316 0.0 0.0 0.00 0.00 0.00 58 1018.8
20260509064105 49 316 0.0 0.0 0.00 0.00 0.00 58 1018.8
20260509063604 49 316 0.0 0.0 0.00 0.00 0.00 59 1018.8
20260509063104 50 316 0.0 0.0 0.00 0.00 0.00 58 1018.8
20260509062605 50 316 0.0 0.0 0.00 0.00 0.00 58 1018.8
20260509062104 50 316 0.0 0.0 0.00 0.00 0.00 58 1018.8
20260509061604 51 316 0.0 0.0 0.00 0.00 0.00 58 1018.7
20260509061104 51 316 0.0 0.0 0.00 0.00 0.00 57 1018.6
20260509060604 51 316 0.0 0.0 0.00 0.00 0.00 56 1018.5
20260509060105 52 316 0.0 0.0 0.00 0.00 0.00 56 1018.4
20260509055604 52 316 0.0 0.0 0.00 0.00 0.00 55 1018.4
20260509055104 52 316 0.0 0.0 0.00 0.00 0.00 55 1018.3
20260509054604 52 316 0.0 0.0 0.00 0.00 0.00 54 1018.4
20260509054104 53 316 0.0 0.0 0.00 0.00 0.00 53 1018.4
20260509053604 53 316 0.0 0.0 0.00 0.00 0.00 53 1018.4
20260509053105 53 316 0.0 0.0 0.00 0.00 0.00 53 1018.4
20260509052605 53 316 0.0 0.0 0.00 0.00 0.00 53 1018.5
20260509052104 54 316 0.0 0.0 0.00 0.00 0.00 52 1018.5
20260509051604 54 316 0.0 0.0 0.00 0.00 0.00 51 1018.5
20260509051104 54 316 0.0 0.0 0.00 0.00 0.00 51 1018.4
20260509050604 55 316 0.0 0.0 0.00 0.00 0.00 50 1018.4
20260509050104 55 316 0.0 0.0 0.00 0.00 0.00 50 1018.3
20260509045604 55 316 0.0 0.0 0.00 0.00 0.00 49 1018.1
20260509045104 56 316 0.0 0.0 0.00 0.00 0.00 48 1018.0
20260509044604 56 316 0.0 0.0 0.00 0.00 0.00 48 1018.0
20260509043604 57 316 0.0 0.0 0.00 0.00 0.00 47 1017.9
20260509043105 57 316 0.0 0.0 0.00 0.00 0.00 47 1017.8
20260509042104 58 316 0.0 0.0 0.00 0.00 0.00 45 1017.7
20260509041604 58 316 0.0 0.0 0.00 0.00 0.00 45 1017.7
20260509041104 58 316 0.0 0.0 0.00 0.00 0.00 45 1017.6
20260509040604 58 316 0.0 0.0 0.00 0.00 0.00 44 1017.5
20260509040104 58 316 0.0 0.0 0.00 0.00 0.00 44 1017.5
20260509035104 59 316 0.0 0.0 0.00 0.00 0.00 43 1017.4
20260509033604 60 316 0.0 2.0 0.00 0.00 0.00 42 1017.5
20260509033104 60 316 0.0 1.0 0.00 0.00 0.00 41 1017.5
20260509032604 60 316 0.0 1.0 0.00 0.00 0.00 41 1017.4
20260509031604 61 312 0.0 3.0 0.00 0.00 0.00 40 1017.2
20260509031104 61 244 0.0 3.0 0.00 0.00 0.00 39 1017.2
20260509030604 61 282 0.0 1.0 0.00 0.00 0.00 39 1017.2
20260509030104 62 314 0.0 3.0 0.00 0.00 0.00 38 1017.1
20260509025604 62 298 1.0 3.0 0.00 0.00 0.00 37 1017.0
20260509025104 62 328 0.0 6.0 0.00 0.00 0.00 37 1016.9
20260509024104 63 334 2.0 10.0 0.00 0.00 0.00 35 1016.6
20260509023604 64 323 0.0 6.0 0.00 0.00 0.00 35 1016.6
20260509022604 65 293 0.0 0.0 0.00 0.00 0.00 32 1016.6
20260509022104 65 323 1.0 5.0 0.00 0.00 0.00 31 1016.6
20260509021104 66 244 0.0 3.0 0.00 0.00 0.00 30 1016.3
20260509020604 67 300 0.0 1.0 0.00 0.00 0.00 30 1016.3
20260509020104 67 244 0.0 2.0 0.00 0.00 0.00 30 1016.3
20260509015605 68 331 1.0 3.0 0.00 0.00 0.00 29 1016.1
20260509015104 68 284 0.0 2.0 0.00 0.00 0.00 27 1016.0
20260509014604 68 280 0.0 3.0 0.00 0.00 0.00 25 1015.9
20260509014104 69 334 1.0 5.0 0.00 0.00 0.00 25 1015.9
20260509013104 69 297 1.0 3.0 0.00 0.00 0.00 24 1015.6
20260509012605 69 232 0.0 3.0 0.00 0.00 0.00 24 1015.5
20260509011604 70 327 0.0 3.0 0.00 0.00 0.00 26 1015.3
20260509011104 70 282 0.0 3.0 0.00 0.00 0.00 26 1015.3
20260509010605 71 291 1.0 6.0 0.00 0.00 0.00 25 1015.5
20260509010105 71 264 0.0 1.0 0.00 0.00 0.00 24 1015.4
20260509004605 71 326 1.0 3.0 0.00 0.00 0.00 25 1015.4
20260509004104 72 236 0.0 8.0 0.00 0.00 0.00 24 1015.6
20260509003604 72 210 0.0 6.0 0.00 0.00 0.00 24 1015.5
20260509003104 73 218 1.0 7.0 0.00 0.00 0.00 23 1015.5
20260509002604 73 270 0.0 5.0 0.00 0.00 0.00 23 1015.5
20260509002104 73 233 1.0 3.0 0.00 0.00 0.00 23 1015.4
20260509001604 73 350 0.0 3.0 0.00 0.00 0.00 23 1015.3
20260509001105 73 262 1.0 6.0 0.00 0.00 0.00 23 1015.4
20260509000604 74 252 0.0 2.0 0.00 0.00 0.00 23 1015.4
20260508235604 74 249 0.0 9.0 0.00 0.00 0.00 24 1015.3
20260508235104 75 255 1.0 5.0 0.00 0.00 0.00 24 1015.4
20260508233604 74 255 1.0 7.0 0.00 0.00 0.00 23 1015.4